Regional Weather Roundup
Issued by NWS

Home | Current Version | Previous Version | Text Only | Print | Product List | Glossary On
Versions: 1 2 3 4 5 6 7 8 9 10 11 12 13 14 15 16 17 18 19 20 21 22 23 24 25 26 27 28 29 30 31 32 33 34 35 36 37 38 39 40 41 42 43 44 45 46 47 48 49 50
000
ASUS43 KLMK 280610
RWRKY
KENTUCKY REGIONAL WEATHER ROUNDUP
NATIONAL WEATHER SERVICE LOUISVILLE KY
200 AM EDT FRI AUG 28 2015

NOTE "FAIR" INDICATES FEW OR NO CLOUDS BELOW 12,000 FEET
WITH NO SIGNIFICANT WEATHER AND/OR OBSTRUCTIONS TO VISIBILITY.

KYZ001>023-026-027-061>063-070>075-280700-
WESTERN AND SOUTH CENTRAL KENTUCKY

CITY           SKY/WX    TMP DP  RH WIND       PRES   REMARKS
PADUCAH        FAIR      59  57  93 CALM      30.08S
HENDERSON      FAIR      59  54  82 CALM      30.09F
OWENSBORO      FAIR      64  58  81 SE5       30.11F
HOPKINSVILLE   FAIR      64  56  75 E6        30.09F
BOWLING GREEN  FAIR      61  55  81 CALM      30.11F
GLASGOW        FAIR      59  55  84 NE3       30.11F
$$

KYZ024-025-028>034-038-045-046-053-280700-
NORTH CENTRAL KENTUCKY

CITY           SKY/WX    TMP DP  RH WIND       PRES   REMARKS
LOUISVILLE/SDF FAIR      66  56  70 E5        30.13R
LOUISVILLE/LOU FAIR      65  56  72 E3        30.14R
FORT KNOX      FAIR      56  54  91 NE1       30.11S
$$

KYZ035>037-039>044-047>052-055>060-089>105-280700-
NORTHEAST KENTUCKY

CITY           SKY/WX    TMP DP  RH WIND       PRES   REMARKS
LEXINGTON      FAIR      59  53  80 CALM      30.14S
COVINGTON      FAIR      63  56  78 CALM      30.15S
FRANKFORT      FAIR      57  53  86 CALM      30.13R
$$

KYZ054-064>069-076>088-106>120-280700-
SOUTHEAST KENTUCKY

CITY           SKY/WX    TMP DP  RH WIND       PRES   REMARKS
JACKSON        FAIR      60  54  80 CALM      30.14F
LONDON         FAIR      60  54  80 CALM      30.13F
SOMERSET       FAIR      61  54  77 CALM      30.14S
MIDDLESBORO    FAIR      60  59  94 W3        30.14F
MONTICELLO     FAIR      57  57 100 CALM      30.15F
$$




USA.gov is the U.S. government's official web portal to all federal, state and local government web resources and services.